Regional Weather Roundup
Issued by NWS Jackson, KY

Home | Current Version | Previous Version | Text Only | Print | Product List | Glossary On
Versions: 1 2 3 4 5 6 7 8 9 10 11 12 13 14 15 16 17 18 19 20 21 22 23 24 25 26 27 28 29 30 31 32 33 34 35 36 37 38 39 40 41 42 43 44 45 46 47 48 49 50
000
ASUS43 KJKL 051410
RWRJKL

EAST KENTUCKY HOURLY WEATHER ROUNDUP
NATIONAL WEATHER SERVICE JACKSON KY
900 AM EST MON DEC 05 2016

NOTE: "FAIR" INDICATES FEW OR NO CLOUDS BELOW 12,000 FEET WITH
NO SIGNIFICANT WEATHER AND/OR OBSTRUCTIONS TO VISIBILITY.

* THESE REPORTS ARE NOT UNDER NWS QUALITY CONTROL AND MAY NOT
  REPORT WEATHER SUCH AS PRECIPITATION AND FOG.

KYZ079-080-083-085-087-088-110-112-115-119-120-051500
...EASTERN KENTUCKY...

CITY           SKY/WX    TMP DP  RH WIND       PRES   REMARKS
JACKSON        CLOUDY    42  37  82 CALM      30.07R
LONDON         CLOUDY    44  40  85 CALM      30.07R
SOMERSET*      CLOUDY    41  39  93 NE6       30.08S
MONTICELLO*    CLOUDY    42  40  92 N12       30.09R
WILLIAMSBURG*  CLOUDY    43  43 100 N6        30.06S
MIDDLESBORO*   CLOUDY    46  43  90 CALM      30.07S
HARLAN APT*    CLOUDY    45  41  87 CALM      30.05R
PIKE CO APT*   CLOUDY    42  42 100 N7        30.06S
BIG SANDY APT* CLOUDY    44  41  91 N5        30.08
MOREHEAD APT*  CLOUDY    41  36  81 CALM      30.11R
ASHLAND*       CLOUDY    45  37  76 N6        30.09S
$$

KYZ035-036-041-042-044-050-067-078-099-051500
...CENTRAL KENTUCKY...

CITY           SKY/WX    TMP DP  RH WIND       PRES   REMARKS
MT STERLING*   CLOUDY    39  36  87 NE5       30.10S
FLEMING/MASON* PTSUNNY   40  33  75 N3        30.11S
DANVILLE*      CLOUDY    37  34  87 E3        30.10R
LEXINGTON      CLOUDY    39  35  86 NE5       30.09R
FRANKFORT      CLOUDY    39  32  76 NE6       30.09R WCI  35
LOUISVILLE     CLOUDY    40  32  73 VRB3      30.11R
LEBANON*       CLOUDY    39  34  81 CALM      30.10R
GLASGOW*       CLOUDY    38  38 100 NE6       30.09R WCI  34
BOWLING GREEN  CLOUDY    40  36  86 E7        30.09R
$$

KYZ091>093-OHZ055-061-077-WVZ005-015-034-035-042-051500
...SOUTHERN OHIO/WEST VIRGINIA...

CITY           SKY/WX    TMP DP  RH WIND       PRES   REMARKS
COVINGTON      CLOUDY    37  31  78 N5        30.09R WCI  33
COLUMBUS       CLOUDY    36  32  85 NW3       30.10R
DAYTON         CLOUDY    35  30  82 SW3       30.10R
WILMINGTON     CLOUDY    36  29  75 CALM      30.09R
HUNTINGTON     CLOUDY    45  37  73 N6        30.09R
CHARLESTON     PTSUNNY   46  38  73 NW5       30.08R
PINEVILLE*     CLOUDY    45  42  91 MISG      30.09F
BECKLEY        CLOUDY    41  37  86 NW10      30.03F
BLUEFIELD      CLOUDY    40  36  86 NW7       30.03S
LOGAN CO APT*  CLOUDY    43  39  87 NW3       30.06F
$$

VAZ002-007-008-TNZ017-027-036-066-071-051500
...SOUTHWEST VIRGINIA/EAST TENNESSEE...

CITY           SKY/WX    TMP DP  RH WIND       PRES   REMARKS
WISE*          CLOUDY    43  43 100 N6        30.05R
JONESVILLE*    CLOUDY    46  46 100 CALM      30.08R
ABINGDON*      CLOUDY    46  46 100 W5        30.04R FOG
BRISTOL        CLOUDY    46  45  96 CALM      30.05R FOG
MORRISTOWN*    CLOUDY    46  46 100 CALM      30.03S FOG
SEVIERVILLE*   CLOUDY    45  45 100 CALM      30.03F
KNOXVILLE      CLOUDY    47  45  93 NE7       30.02S FOG
OAK RIDGE      CLOUDY    49  46  90 VRB3      30.05R
CROSSVILLE     CLOUDY    43  42  97 NE5       30.02S
NASHVILLE      CLOUDY    42  39  89 N8        30.07R FOG
$$

...KEY TO REMARKS...
VSB - VISIBILITY IN MILES
WCI - WIND CHILL INDEX
HX  - HEAT INDEX

$$



USA.gov is the U.S. government's official web portal to all federal, state and local government web resources and services.